TimePDT,TemperatureF,Dew PointF,Humidity,Sea Level PressureIn,VisibilityMPH,Wind Direction,Wind SpeedMPH,Gust SpeedMPH,PrecipitationIn,Events,Conditions,WindDirDegrees,DateUTC
12:56 AM,45.0,44.1,97,30.13,7.0,Calm,Calm,-,N/A,,Clear,0,2013-10-20 07:56:00
1:06 AM,44.6,44.6,100,30.13,1.8,Calm,Calm,-,N/A,,Clear,0,2013-10-20 08:06:00
1:16 AM,44.6,44.6,100,30.13,3.0,Calm,Calm,-,N/A,,Clear,0,2013-10-20 08:16:00
1:42 AM,42.8,42.8,100,30.13,2.0,Calm,Calm,-,N/A,,Clear,0,2013-10-20 08:42:00
1:51 AM,42.8,42.8,100,30.13,5.0,Calm,Calm,-,N/A,,Clear,0,2013-10-20 08:51:00
1:56 AM,43.0,42.1,97,30.13,6.0,Calm,Calm,-,N/A,,Clear,0,2013-10-20 08:56:00
2:56 AM,43.0,41.0,93,30.13,4.0,Calm,Calm,-,N/A,,Clear,0,2013-10-20 09:56:00
3:25 AM,41.0,41.0,100,30.13,1.8,Calm,Calm,-,N/A,,Clear,0,2013-10-20 10:25:00
3:39 AM,41.0,39.2,93,30.13,3.0,Calm,Calm,-,N/A,,Partly Cloudy,0,2013-10-20 10:39:00
3:54 AM,42.8,39.2,87,30.13,5.0,Calm,Calm,-,N/A,,Mostly Cloudy,0,2013-10-20 10:54:00
3:56 AM,42.1,39.9,92,30.13,4.0,Calm,Calm,-,N/A,,Mostly Cloudy,0,2013-10-20 10:56:00
4:02 AM,42.8,39.2,87,30.12,1.5,Calm,Calm,-,N/A,,Mostly Cloudy,0,2013-10-20 11:02:00
4:07 AM,42.8,41.0,93,30.12,0.8,Calm,Calm,-,N/A,,Mist,0,2013-10-20 11:07:00
4:21 AM,39.2,39.2,100,30.12,1.2,Calm,Calm,-,N/A,,Scattered Clouds,0,2013-10-20 11:21:00
4:25 AM,39.2,39.2,100,30.12,2.0,Calm,Calm,-,N/A,,Scattered Clouds,0,2013-10-20 11:25:00
4:30 AM,39.2,39.2,100,30.12,5.0,Calm,Calm,-,N/A,,Mostly Cloudy,0,2013-10-20 11:30:00
4:43 AM,41.0,41.0,100,30.12,1.2,Calm,Calm,-,N/A,,Mostly Cloudy,0,2013-10-20 11:43:00
4:49 AM,39.2,39.2,100,30.12,0.2,Calm,Calm,-,N/A,Fog,Fog,0,2013-10-20 11:49:00
4:56 AM,39.9,39.0,97,30.12,0.2,Calm,Calm,-,N/A,Fog,Fog,0,2013-10-20 11:56:00
5:56 AM,41.0,41.0,100,30.13,0.2,Calm,Calm,-,N/A,Fog,Fog,0,2013-10-20 12:56:00
6:56 AM,39.9,39.9,100,30.14,0.2,Calm,Calm,-,N/A,Fog,Fog,0,2013-10-20 13:56:00
7:56 AM,39.9,39.9,100,30.14,0.2,Calm,Calm,-,N/A,Fog,Fog,0,2013-10-20 14:56:00
8:56 AM,44.1,43.0,96,30.16,0.2,North,3.5,-,N/A,Fog,Fog,360,2013-10-20 15:56:00
9:22 AM,44.6,44.6,100,30.15,0.5,Calm,Calm,-,N/A,Fog,Fog,0,2013-10-20 16:22:00
9:46 AM,46.4,46.4,100,30.15,0.2,Calm,Calm,-,N/A,Fog,Fog,0,2013-10-20 16:46:00
9:56 AM,46.0,46.0,100,30.16,0.2,NNW,3.5,-,N/A,Fog,Fog,340,2013-10-20 16:56:00
10:56 AM,46.9,46.0,97,30.16,0.5,WNW,3.5,-,N/A,,Overcast,300,2013-10-20 17:56:00
11:04 AM,46.4,46.4,100,30.15,0.5,Calm,Calm,-,N/A,Fog,Fog,0,2013-10-20 18:04:00
11:26 AM,46.4,46.4,100,30.15,1.2,Calm,Calm,-,N/A,,Overcast,0,2013-10-20 18:26:00
11:40 AM,46.4,46.4,100,30.14,2.0,NNW,3.5,-,N/A,,Overcast,340,2013-10-20 18:40:00
11:56 AM,48.9,46.0,90,30.14,2.0,Calm,Calm,-,N/A,,Overcast,0,2013-10-20 18:56:00
12:20 PM,51.8,46.4,82,30.13,5.0,Calm,Calm,-,N/A,,Haze,0,2013-10-20 19:20:00
12:56 PM,53.1,45.0,74,30.13,7.0,NNE,4.6,-,N/A,,Partly Cloudy,30,2013-10-20 19:56:00
1:56 PM,57.0,46.9,69,30.10,10.0,North,3.5,-,N/A,,Clear,360,2013-10-20 20:56:00
2:56 PM,61.0,48.0,62,30.09,10.0,Calm,Calm,-,N/A,,Clear,0,2013-10-20 21:56:00
3:56 PM,64.0,46.9,54,30.08,10.0,Calm,Calm,-,N/A,,Clear,0,2013-10-20 22:56:00
4:56 PM,64.0,48.0,56,30.07,10.0,North,4.6,-,N/A,,Clear,360,2013-10-20 23:56:00
5:56 PM,61.0,48.9,64,30.06,10.0,ENE,3.5,-,N/A,,Clear,60,2013-10-21 00:56:00
6:56 PM,53.1,48.0,83,30.06,10.0,Calm,Calm,-,N/A,,Clear,0,2013-10-21 01:56:00
7:56 PM,50.0,46.9,89,30.06,10.0,Calm,Calm,-,N/A,,Clear,0,2013-10-21 02:56:00
8:56 PM,48.0,46.0,93,30.06,10.0,Calm,Calm,-,N/A,,Clear,0,2013-10-21 03:56:00
9:56 PM,46.9,45.0,93,30.06,6.0,Calm,Calm,-,N/A,,Clear,0,2013-10-21 04:56:00
10:56 PM,46.0,43.0,89,30.07,7.0,SW,3.5,-,N/A,,Clear,220,2013-10-21 05:56:00
11:56 PM,44.1,43.0,96,30.07,6.0,Calm,Calm,-,N/A,,Clear,0,2013-10-21 06:56:00